Location: *
(32.3300°N, 34.8500°E)
Time: 14:09:39
(UTC+00:00)

Cosmos 1140 Rocket - Pass Details

Date: 22 October 2019
Orbit: 745 x 766 km, 74.1° (Epoch: 12 November)

Event Time Altitude Azimuth Distance (km) Brightness Sun altitude
Exits shadow 02:16:17 28° 320° (NW) 1,398 4.5 -20.3°
Drops below altitude 10° 02:19:33 10° 355° (N) 2,278 5.9 -19.6°
Sets 02:22:09 0° 5° (N) 3,202 6.8 -19.1°
